Location: Prague
(50.0830°N, 14.4670°E)
Time: 15:00:14
(UTC+01:00)

BlueWalker 3 - Pass Details

Date: 12 December 2022
Orbit: 499 x 517 km, 53.2° (Epoch: 01 February)

Event Time Altitude Azimuth Distance (km) Brightness Sun altitude
Rises 17:14:51 0° 292° (WNW) 2,632 6.3 -11.3°
Reaches altitude 10° 17:17:10 10° 283° (WNW) 1,738 5.5 -11.6°
Maximum altitude 17:20:46 35° 217° (SW) 834 3.6 -12.2°
Drops below altitude 10° 17:24:20 10° 150° (SSE) 1,718 4.6 -12.7°
Sets 17:26:37 0° 142° (SE) 2,595 5.4 -13.0°
